Location: Harwich
(41.6860°N, 70.0760°W)
Time: 13:02:16
(UTC-04:00)

Tiangong - Visible Passes

Search period start: 05 June 2023 00:00
Search period end: 15 June 2023 00:00
Orbit: 386 x 391 km, 41.5° (Epoch: 05 June)

Date Brightness Start Highest point End Pass type
(mag) Time Alt. Az. Time Alt. Az. Time Alt. Az.
05 Jun 0.3 02:27:49 16° ESE 02:27:49 16° ESE 02:28:46 10° E visible
05 Jun -2.2 04:00:05 14° WSW 04:02:43 75° S 04:05:55 10° E visible
06 Jun -2.1 03:04:05 57° S 03:04:15 58° SSE 03:07:25 10° E visible
07 Jun 0.4 02:08:03 16° E 02:08:03 16° E 02:08:49 10° E visible
07 Jun -2.2 03:40:19 18° W 03:42:35 87° S 03:45:48 10° E visible
08 Jun -2.1 02:44:16 69° ESE 02:44:16 69° ESE 02:47:11 10° E visible
08 Jun -2.2 04:17:42 10° W 04:20:54 78° S 04:24:05 10° ESE visible
09 Jun 0.8 01:48:15 12° E 01:48:15 12° E 01:48:32 10° E visible
09 Jun -2.2 03:20:32 25° W 03:22:16 88° S 03:25:28 10° E visible
10 Jun -1.1 02:24:35 40° E 02:24:35 40° E 02:26:46 10° E visible
10 Jun -2.1 03:57:17 10° W 04:00:26 60° SSW 04:03:35 10° ESE visible
11 Jun -2.3 03:01:04 52° W 03:01:43 77° S 03:04:55 10° ESE visible
12 Jun 0.5 02:05:35 14° E 02:05:35 14° E 02:06:08 10° E visible
12 Jun -1.7 03:37:54 20° W 03:39:43 40° SSW 03:42:44 10° SE visible
13 Jun -0.2 02:42:56 20° ESE 02:42:56 20° ESE 02:44:05 10° ESE visible
13 Jun -0.4 04:15:22 10° WSW 04:17:27 16° SSW 04:19:33 10° S visible
14 Jun 0.3 03:21:06 12° SSE 03:21:06 12° SSE 03:21:26 10° SSE visible
14 Jun -0.7 21:27:23 10° SSW 21:29:45 19° SSE 21:29:56 19° SE visible
